Tracking 19832 objects as of 25-Aug-2019
HD Live streaming from Space Station
objects crossing your sky now

COSMOS 2209

Track COSMOS 2209 now!
COSMOS 2209 is classified as:


NORAD ID: 22112
Int'l Code: 1992-059A
Perigee: 35,739.2 km
Apogee: 35,834.6 km
Inclination: 15.0 °
Period: 1,435.7 minutes
Semi major axis: 42157 km
RCS: 5.0119 m2 (large)
Launch date: September 10, 1992
Source: Commonwealth of Independent States (former USSR) (CIS)
Launch site: TYURATAM MISSILE AND SPACE COMPLEX (TTMTR)
aabbcc
Your satellite tracking list
Your tracking list is empty




NASA's NSSDC Master Catalog

Two Line Element Set (TLE):
1 22112U 92059A   19236.40060361 +.00000060 +00000-0 +00000-0 0  9990
2 22112 015.0068 003.0905 0011306 281.8992 017.4979 01.00296163098650
Source of the keplerian elements: AFSPC